• En España
  • Lista de países
  • Para 7 días
  • Temperatura del agua
  • Mapa Satelital
  • El tiempo en el mapa
  • Informadores
  • user-avatar
    Iniciar sesión

    Tiempo cada hora Sevan

    Hoy, 15 Noviembre, Jueves

    Tiempo Temperatura Precipitaciones Viento Presión Humedad
    00:00 +2°C° 0.4 mm 3 mps 638 mmHg 79%
    01:00 +2°C° 0.4 mm 3 mps 638 mmHg 79%
    02:00 +2°C° 0.4 mm 3 mps 638 mmHg 80%
    03:00 +3°C° 0 mm 2 mps 638 mmHg 80%
    04:00 +3°C° 0.6 mm 2 mps 638 mmHg 80%
    05:00 +3°C° 0.6 mm 2 mps 638 mmHg 80%
    06:00 +3°C° 0.6 mm 2 mps 638 mmHg 81%
    07:00 +3°C° 0.4 mm 3 mps 638 mmHg 79%
    08:00 +3°C° 0.4 mm 3 mps 639 mmHg 77%
    09:00 +4°C° 0.4 mm 3 mps 639 mmHg 76%
    10:00 +5°C° 0.3 mm 3 mps 639 mmHg 75%
    11:00 +5°C° 0.3 mm 3 mps 639 mmHg 74%
    12:00 +7°C° 0.3 mm 3 mps 639 mmHg 73%
    13:00 +7°C° 0.3 mm 3 mps 639 mmHg 74%
    14:00 +7°C° 0.3 mm 3 mps 639 mmHg 74%
    15:00 +7°C° 0.3 mm 2 mps 639 mmHg 75%
    16:00 +6°C° 0.4 mm 2 mps 639 mmHg 77%
    17:00 +6°C° 0.4 mm 2 mps 640 mmHg 79%
    18:00 +5°C° 0.4 mm 2 mps 640 mmHg 81%
    19:00 +5°C° 0.3 mm 2 mps 640 mmHg 81%
    20:00 +5°C° 0.3 mm 2 mps 640 mmHg 81%
    21:00 +5°C° 0.3 mm 2 mps 640 mmHg 81%
    22:00 +5°C° 0.4 mm 2 mps 640 mmHg 81%
    23:00 +5°C° 0.4 mm 2 mps 640 mmHg 82%

    Mañana, 16 Noviembre, Viernes

    Tiempo Temperatura Precipitaciones Viento Presión Humedad
    00:00 +4°C° 0.4 mm 2 mps 640 mmHg 82%
    01:00 +4°C° 0.6 mm 2 mps 640 mmHg 82%
    02:00 +4°C° 0.6 mm 2 mps 640 mmHg 82%
    03:00 +4°C° 0.6 mm 2 mps 640 mmHg 82%
    04:00 +4°C° 0.2 mm 2 mps 640 mmHg 82%
    05:00 +4°C° 0.2 mm 2 mps 640 mmHg 82%
    06:00 +4°C° 0.2 mm 2 mps 640 mmHg 82%
    07:00 +5°C° 0.2 mm 2 mps 640 mmHg 80%
    08:00 +6°C° 0.2 mm 2 mps 641 mmHg 79%
    09:00 +6°C° 0.2 mm 2 mps 641 mmHg 78%
    10:00 +7°C° 0.2 mm 2 mps 641 mmHg 77%
    11:00 +7°C° 0.2 mm 2 mps 641 mmHg 76%
    12:00 +8°C° 0.2 mm 2 mps 641 mmHg 75%
    13:00 +8°C° 0.1 mm 2 mps 641 mmHg 74%
    14:00 +8°C° 0.1 mm 2 mps 641 mmHg 74%
    15:00 +8°C° 0.1 mm 2 mps 641 mmHg 74%
    16:00 +7°C° 0.1 mm 2 mps 641 mmHg 76%
    17:00 +7°C° 0.1 mm 2 mps 641 mmHg 77%
    18:00 +6°C° 0.1 mm 2 mps 641 mmHg 79%
    19:00 +6°C° 0.1 mm 2 mps 641 mmHg 79%
    20:00 +6°C° 0.1 mm 2 mps 641 mmHg 79%
    21:00 +6°C° 0.1 mm 2 mps 641 mmHg 79%
    22:00 +6°C° 0.2 mm 2 mps 642 mmHg 79%
    23:00 +6°C° 0.2 mm 2 mps 642 mmHg 80%

    Pasado mañana, 17 Noviembre, Sábado

    Tiempo Temperatura Precipitaciones Viento Presión Humedad
    00:00 +6°C° 0.2 mm 2 mps 642 mmHg 80%
    01:00 +6°C° 0.2 mm 2 mps 642 mmHg 80%
    02:00 +5°C° 0.2 mm 2 mps 642 mmHg 80%
    03:00 +5°C° 0.2 mm 2 mps 642 mmHg 81%
    04:00 +5°C° 0.1 mm 2 mps 642 mmHg 81%
    05:00 +5°C° 0.1 mm 2 mps 642 mmHg 81%
    06:00 +5°C° 0.1 mm 2 mps 642 mmHg 82%
    07:00 +6°C° 0 mm 2 mps 642 mmHg 79%
    08:00 +6°C° 0 mm 2 mps 643 mmHg 77%
    09:00 +7°C° 0 mm 2 mps 643 mmHg 74%
    10:00 +7°C° 0 mm 2 mps 643 mmHg 72%
    11:00 +8°C° 0 mm 3 mps 643 mmHg 69%
    12:00 +8°C° 0 mm 3 mps 643 mmHg 67%
    13:00 +8°C° 0 mm 3 mps 643 mmHg 65%
    14:00 +8°C° 0 mm 3 mps 643 mmHg 64%
    15:00 +8°C° 0 mm 3 mps 643 mmHg 63%
    16:00 +7°C° 0 mm 2 mps 643 mmHg 65%
    17:00 +6°C° 0 mm 2 mps 643 mmHg 68%
    18:00 +6°C° 0 mm 1 mps 643 mmHg 70%
    19:00 +5°C° 0 mm 1 mps 643 mmHg 69%
    20:00 +5°C° 0 mm 1 mps 643 mmHg 69%
    21:00 +5°C° 0 mm 1 mps 643 mmHg 68%
    22:00 +4°C° 0 mm 1 mps 643 mmHg 68%
    23:00 +4°C° 0 mm 1 mps 643 mmHg 67%

    18 Noviembre, Domingo

    Tiempo Temperatura Precipitaciones Viento Presión Humedad
    00:00 +4°C° 0 mm 1 mps 643 mmHg 67%
    01:00 +4°C° 0 mm 1 mps 643 mmHg 67%
    02:00 +3°C° 0 mm 1 mps 643 mmHg 68%
    03:00 +3°C° 0 mm 1 mps 643 mmHg 68%
    04:00 +3°C° 0 mm 1 mps 642 mmHg 69%
    05:00 +3°C° 0 mm 1 mps 642 mmHg 69%
    06:00 +2°C° 0 mm 1 mps 642 mmHg 70%
    07:00 +3°C° 0 mm 1 mps 642 mmHg 68%
    08:00 +3°C° 0 mm 2 mps 643 mmHg 66%
    09:00 +4°C° 0 mm 2 mps 643 mmHg 63%
    10:00 +5°C° 0 mm 2 mps 643 mmHg 62%
    11:00 +6°C° 0 mm 2 mps 642 mmHg 60%
    12:00 +6°C° 0 mm 2 mps 642 mmHg 58%
    13:00 +6°C° 0 mm 2 mps 642 mmHg 59%
    14:00 +6°C° 0 mm 2 mps 642 mmHg 59%
    15:00 +6°C° 0 mm 2 mps 641 mmHg 59%
    16:00 +5°C° 0.1 mm 2 mps 641 mmHg 62%
    17:00 +5°C° 0.1 mm 2 mps 641 mmHg 65%
    18:00 +5°C° 0.1 mm 1 mps 641 mmHg 67%
    19:00 +5°C° 0.1 mm 1 mps 641 mmHg 68%
    20:00 +4°C° 0.1 mm 1 mps 642 mmHg 68%
    21:00 +4°C° 0.1 mm 1 mps 642 mmHg 69%
    22:00 +4°C° 0 mm 1 mps 642 mmHg 69%
    23:00 +3°C° 0 mm 1 mps 641 mmHg 69%

    19 Noviembre, Lunes

    Tiempo Temperatura Precipitaciones Viento Presión Humedad
    00:00 +3°C° 0 mm 1 mps 641 mmHg 70%
    01:00 +3°C° 0 mm 1 mps 641 mmHg 70%
    02:00 +3°C° 0 mm 1 mps 641 mmHg 70%
    03:00 +3°C° 0 mm 1 mps 641 mmHg 69%
    04:00 +3°C° 0 mm 1 mps 641 mmHg 70%
    05:00 +2°C° 0 mm 1 mps 641 mmHg 70%
    06:00 +2°C° 0 mm 1 mps 641 mmHg 70%
    07:00 +3°C° 0 mm 2 mps 642 mmHg 67%
    08:00 +4°C° 0 mm 2 mps 642 mmHg 65%
    09:00 +5°C° 0 mm 2 mps 643 mmHg 62%
    10:00 +6°C° 0 mm 2 mps 643 mmHg 61%
    11:00 +7°C° 0 mm 2 mps 643 mmHg 59%
    12:00 +8°C° 0 mm 3 mps 642 mmHg 57%
    13:00 +8°C° 0 mm 3 mps 642 mmHg 57%
    14:00 +8°C° 0 mm 2 mps 642 mmHg 56%
    15:00 +8°C° 0 mm 2 mps 642 mmHg 56%
    16:00 +7°C° 0.1 mm 2 mps 642 mmHg 59%
    17:00 +6°C° 0.1 mm 2 mps 642 mmHg 61%
    18:00 +5°C° 0.1 mm 2 mps 642 mmHg 64%
    19:00 +5°C° 0 mm 2 mps 642 mmHg 64%
    20:00 +5°C° 0 mm 2 mps 642 mmHg 65%
    21:00 +5°C° 0 mm 2 mps 642 mmHg 65%
    22:00 +5°C° 0 mm 2 mps 642 mmHg 66%
    23:00 +5°C° 0 mm 1 mps 642 mmHg 66%

    20 Noviembre, Martes

    Tiempo Temperatura Precipitaciones Viento Presión Humedad
    00:00 +5°C° 0 mm 1 mps 642 mmHg 67%
    01:00 +5°C° 0 mm 1 mps 642 mmHg 67%
    02:00 +5°C° 0 mm 1 mps 642 mmHg 67%
    03:00 +5°C° 0 mm 1 mps 641 mmHg 68%
    04:00 +5°C° 0 mm 1 mps 641 mmHg 67%
    05:00 +4°C° 0 mm 1 mps 641 mmHg 67%
    06:00 +4°C° 0 mm 1 mps 641 mmHg 66%
    07:00 +4°C° 0 mm 2 mps 642 mmHg 65%
    08:00 +5°C° 0 mm 2 mps 642 mmHg 63%
    09:00 +6°C° 0 mm 2 mps 642 mmHg 61%
    10:00 +7°C° 0 mm 2 mps 642 mmHg 61%
    11:00 +8°C° 0 mm 2 mps 642 mmHg 60%
    12:00 +9°C° 0 mm 2 mps 642 mmHg 59%
    13:00 +8°C° 0.1 mm 2 mps 642 mmHg 59%
    14:00 +8°C° 0.1 mm 2 mps 641 mmHg 60%
    15:00 +8°C° 0.1 mm 2 mps 641 mmHg 60%
    16:00 +7°C° 0 mm 2 mps 641 mmHg 62%
    17:00 +7°C° 0 mm 1 mps 641 mmHg 65%
    18:00 +6°C° 0 mm 1 mps 641 mmHg 68%
    19:00 +6°C° 0 mm 1 mps 641 mmHg 68%
    20:00 +6°C° 0 mm 1 mps 642 mmHg 69%
    21:00 +6°C° 0 mm 1 mps 642 mmHg 69%
    22:00 +5°C° 0 mm 1 mps 642 mmHg 70%
    23:00 +5°C° 0 mm 1 mps 642 mmHg 71%
    Mostrar más